QPF
0.03 0.03 0.03 0.05 0.07 0.10 0.14 0.18 0.23 0.33 0.39 0.42 0.49 0.52 0.47 0.45 0.45 0.44 0.51 0.52 0.47 0.39 0.33 0.32 0.32 0.29 0.24 0.22 0.24 0.28 0.30 0.29 0.22 0.20 0.20 0.18 0.15 0.13 0.12 0.11 0.10 0.09 0.08
0.04 0.04 0.03 0.05 0.07 0.08 0.09 0.14 0.18 0.22 0.27 0.37 0.47 0.55 0.52 0.46 0.43 0.41 0.36 0.38 0.39 0.36 0.31 0.30 0.31 0.31 0.24 0.20 0.19 0.19 0.22 0.22 0.21 0.20 0.19 0.16 0.16 0.13 0.11 0.10 0.09 0.08 0.07
0.06 0.05 0.05 0.06 0.07 0.07 0.07 0.09 0.09 0.12 0.16 0.20 0.28 0.36 0.41 0.41 0.37 0.33 0.28 0.23 0.23 0.27 0.28 0.24 0.23 0.26 0.24 0.20 0.16 0.17 0.17 0.19 0.19 0.16 0.15 0.13 0.12 0.12 0.11 0.08 0.07 0.07 0.05
0.06 0.05 0.07 0.07 0.07 0.07 0.08 0.08 0.08 0.10 0.13 0.14 0.16 0.19 0.22 0.26 0.25 0.23 0.20 0.17 0.16 0.16 0.18 0.18 0.16 0.17 0.16 0.16 0.14 0.14 0.13 0.14 0.15 0.14 0.11 0.10 0.07 0.07 0.07 0.05 0.03 0.02 0.03
0.04 0.04 0.05 0.05 0.05 0.09 0.12 0.11 0.08 0.09 0.11 0.11 0.11 0.11 0.12 0.15 0.19 0.19 0.15 0.13 0.12 0.11 0.09 0.10 0.12 0.13 0.12 0.10 0.08 0.09 0.09 0.10 0.12 0.13 0.12 0.09 0.06 0.04 0.03 0.03 0.02 0.01 0.01
0.03 0.03 0.03 0.03 0.04 0.08 0.10 0.10 0.10 0.10 0.13 0.13 0.10 0.09 0.09 0.11 0.15 0.17 0.15 0.14 0.12 0.10 0.08 0.09 0.10 0.10 0.11 0.09 0.08 0.07 0.10 0.13 0.16 0.17 0.17 0.12 0.07 0.05 0.04 0.03 0.02 0.02 0.02
0.03 0.02 0.02 0.01 0.02 0.07 0.07 0.06 0.07 0.06 0.07 0.08 0.08 0.08 0.08 0.10 0.13 0.15 0.14 0.13 0.13 0.12 0.10 0.09 0.10 0.10 0.10 0.11 0.10 0.10 0.10 0.13 0.16 0.16 0.15 0.13 0.11 0.11 0.09 0.07 0.06 0.04 0.03
0.03 0.02 0.03 0.02 0.02 0.05 0.07 0.05 0.05 0.05 0.05 0.06 0.07 0.08 0.09 0.12 0.16 0.13 0.10 0.09 0.09 0.10 0.10 0.11 0.12 0.11 0.10 0.11 0.12 0.12 0.12 0.13 0.16 0.18 0.16 0.15 0.15 0.15 0.14 0.12 0.10 0.08 0.06
0.03 0.02 0.04 0.04 0.03 0.03 0.06 0.07 0.05 0.05 0.05 0.06 0.07 0.08 0.09 0.09 0.10 0.11 0.09 0.06 0.05 0.06 0.07 0.07 0.07 0.07 0.06 0.07 0.08 0.09 0.12 0.14 0.15 0.15 0.15 0.14 0.14 0.12 0.11 0.10 0.08 0.08 0.07
0.02 0.02 0.03 0.06 0.04 0.03 0.04 0.09 0.12 0.08 0.05 0.05 0.06 0.06 0.06 0.06 0.06 0.06 0.04 0.03 0.03 0.04 0.03 0.03 0.03 0.02 0.03 0.04 0.05 0.06 0.09 0.13 0.13 0.11 0.12 0.12 0.12 0.11 0.10 0.09 0.07 0.05 0.04
0.02 0.01 0.01 0.02 0.02 0.02 0.02 0.03 0.06 0.09 0.09 0.07 0.05 0.05 0.05 0.05 0.03 0.03 0.02 0.02 0.01 0.02 0.03 0.03 0.02 0.02 0.02 0.02 0.03 0.05 0.08 0.13 0.16 0.12 0.10 0.09 0.08 0.08 0.08 0.07 0.06 0.05 0.03
0.03 0.02 0.02 0.02 0.02 0.03 0.03 0.02 0.02 0.03 0.05 0.05 0.04 0.04 0.03 0.03 0.03 0.02 0.02 0.01 0.01 0.01 0.02 0.02 0.02 0.02 0.03 0.02 0.03 0.05 0.07 0.08 0.09 0.10 0.09 0.08 0.06 0.05 0.06 0.05 0.04 0.03 0.02
0.03 0.03 0.03 0.04 0.06 0.05 0.04 0.03 0.03 0.02 0.03 0.03 0.03 0.03 0.03 0.03 0.03 0.02 0.01 0.01 0.01 0.01 0.01 0.02 0.02 0.03 0.03 0.04 0.05 0.05 0.05 0.05 0.05 0.06 0.06 0.06 0.05 0.05 0.04 0.04 0.03 0.03 0.02
0.01 0.02 0.02 0.03 0.04 0.04 0.03 0.03 0.03 0.03 0.04 0.04 0.03 0.03 0.03 0.02 0.02 0.02 0.02 0.01 0.01 0.01 0.02 0.02 0.02 0.02 0.02 0.03 0.04 0.03 0.04 0.04 0.03 0.03 0.03 0.03 0.03 0.03 0.03 0.03 0.03 0.02 0.01
0.02 0.02 0.01 0.01 0.01 0.02 0.02 0.02 0.02 0.02 0.03 0.04 0.03 0.03 0.03 0.03 0.03 0.03 0.02 0.02 0.01 0.02 0.02 0.02 0.02 0.02 0.01 0.02 0.02 0.02 0.02 0.02 0.01 0.01 0.00 0.01 0.01 0.01 0.01 0.02 0.01 0.01 0.01
0.02 0.02 0.01 0.01 0.01 0.01 0.01 0.03 0.03 0.03 0.03 0.04 0.04 0.03 0.04 0.04 0.04 0.04 0.03 0.02 0.02 0.02 0.02 0.01 0.01 0.01 0.01 0.02 0.01 0.01 0.01 0.01 0.00 0.00 0.00 0.00 0.01 0.01 0.01 0.01 0.00 0.00 0.00
0.03 0.03 0.02 0.01 0.02 0.02 0.02 0.02 0.03 0.04 0.03 0.04 0.04 0.04 0.04 0.04 0.03 0.03 0.03 0.02 0.02 0.01 0.01 0.01 0.02 0.02 0.02 0.02 0.01 0.01 0.00 0.00 0.01 0.00 0.00 0.00 0.00 0.00 0.00 0.00 0.00 0.00 0.00
0.02 0.02 0.02 0.02 0.02 0.02 0.02 0.02 0.02 0.04 0.05 0.04 0.04 0.03 0.03 0.03 0.03 0.02 0.02 0.02 0.02 0.01 0.01 0.01 0.02 0.02 0.02 0.01 0.01 0.00 0.00 0.00 0.01 0.00 0.00 0.00 0.00 0.00 0.00 0.00 0.00 0.00 0.00
0.02 0.02 0.03 0.03 0.02 0.03 0.03 0.03 0.04 0.04 0.05 0.05 0.04 0.03 0.02 0.02 0.02 0.02 0.02 0.02 0.01 0.01 0.01 0.01 0.01 0.02 0.01 0.01 0.00 0.00 0.00 0.00 0.00 0.00 0.00 0.00 0.00 0.00 0.00 0.00 0.00 0.00 0.00
0.02 0.03 0.03 0.03 0.03 0.03 0.04 0.04 0.04 0.05 0.04 0.04 0.03 0.03 0.03 0.02 0.02 0.03 0.02 0.02 0.01 0.01 0.01 0.01 0.01 0.01 0.00 0.00 0.00 0.00 0.00 0.00 0.00 0.00 0.00 0.00 0.00 0.00 0.00 0.00 0.00 0.00 0.00
0.03 0.03 0.03 0.03 0.02 0.02 0.03 0.03 0.02 0.03 0.03 0.03 0.02 0.02 0.03 0.03 0.02 0.02 0.02 0.02 0.02 0.01 0.01 0.01 0.01 0.01 0.01 0.00 0.00 0.00 0.00 0.00 0.00 0.00 0.00 0.00 0.00 0.00 0.00 0.00 0.00 0.00 0.00
0.02 0.02 0.02 0.02 0.02 0.02 0.02 0.02 0.02 0.02 0.02 0.02 0.01 0.01 0.01 0.02 0.01 0.02 0.02 0.01 0.01 0.01 0.01 0.01 0.01 0.00 0.00 0.00 0.00 0.01 0.00 0.00 0.00 0.00 0.00 0.00 0.00 0.00 0.00 0.00 0.00 0.00 0.00
0.01 0.02 0.02 0.02 0.02 0.01 0.01 0.02 0.01 0.01 0.01 0.01 0.01 0.01 0.01 0.01 0.01 0.02 0.02 0.01 0.01 0.01 0.01 0.01 0.01 0.01 0.01 0.00 0.00 0.00 0.00 0.00 0.00 0.00 0.00 0.00 0.00 0.00 0.00 0.00 0.00 0.00 0.00
0.01 0.02 0.02 0.02 0.02 0.01 0.01 0.01 0.01 0.01 0.01 0.01 0.01 0.01 0.01 0.01 0.01 0.01 0.01 0.01 0.01 0.01 0.01 0.01 0.01 0.01 0.00 0.01 0.00 0.00 0.00 0.00 0.00 0.00 0.00 0.00 0.00 0.00 0.00 0.00 0.00 0.00 0.00
0.01 0.02 0.02 0.02 0.02 0.01 0.01 0.00 0.00 0.00 0.01 0.01 0.01 0.01 0.01 0.01 0.00 0.00 0.00 0.00 0.00 0.00 0.00 0.00 0.00 0.00 0.00 0.00 0.00 0.00 0.00 0.00 0.00 0.00 0.00 0.00 0.00 0.00 0.00 0.00 0.00 0.00 0.00
0.02 0.02 0.02 0.02 0.01 0.01 0.01 0.00 0.01 0.01 0.01 0.01 0.01 0.01 0.01 0.01 0.00 0.00 0.00 0.00 0.00 0.00 0.00 0.00 0.00 0.00 0.00 0.00 0.00 0.00 0.00 0.00 0.00 0.00 0.00 0.00 0.00 0.00 0.00 0.00 0.00 0.00 0.00
MSLP
1013.63 1013.60 1013.47 1013.22 1012.88 1012.47 1012.06 1011.70 1011.44 1011.34 1011.41 1011.64 1012.01 1012.47 1012.98 1013.48 1013.92 1014.29 1014.57 1014.75 1014.87 1014.93 1014.97 1015.01 1015.09 1015.21 1015.39 1015.66 1016.02 1016.47 1017.01 1017.63 1018.30 1019.00 1019.68 1020.31 1020.85 1021.27 1021.56 1021.71 1021.75 1021.70 1021.61
1014.29 1014.25 1014.10 1013.81 1013.41 1012.94 1012.45 1012.02 1011.71 1011.58 1011.64 1011.89 1012.28 1012.78 1013.32 1013.84 1014.30 1014.66 1014.92 1015.08 1015.17 1015.21 1015.23 1015.25 1015.30 1015.39 1015.54 1015.77 1016.07 1016.46 1016.95 1017.52 1018.16 1018.86 1019.56 1020.23 1020.83 1021.34 1021.71 1021.96 1022.08 1022.11 1022.08
1014.89 1014.87 1014.72 1014.43 1014.00 1013.49 1012.95 1012.47 1012.12 1011.95 1012.00 1012.24 1012.65 1013.17 1013.72 1014.26 1014.72 1015.08 1015.33 1015.48 1015.56 1015.59 1015.60 1015.61 1015.64 1015.70 1015.81 1015.97 1016.20 1016.50 1016.90 1017.39 1017.96 1018.61 1019.29 1019.98 1020.63 1021.21 1021.69 1022.04 1022.28 1022.42 1022.49
1015.44 1015.47 1015.36 1015.09 1014.67 1014.14 1013.58 1013.07 1012.68 1012.48 1012.49 1012.71 1013.10 1013.61 1014.15 1014.68 1015.14 1015.49 1015.74 1015.90 1015.99 1016.03 1016.05 1016.07 1016.09 1016.13 1016.20 1016.30 1016.44 1016.65 1016.94 1017.31 1017.79 1018.35 1018.98 1019.65 1020.32 1020.95 1021.52 1021.99 1022.35 1022.62 1022.79
1015.95 1016.05 1016.01 1015.79 1015.42 1014.91 1014.35 1013.82 1013.40 1013.15 1013.12 1013.29 1013.63 1014.08 1014.59 1015.09 1015.52 1015.87 1016.13 1016.30 1016.41 1016.48 1016.53 1016.57 1016.61 1016.66 1016.70 1016.75 1016.83 1016.94 1017.11 1017.37 1017.72 1018.17 1018.72 1019.33 1019.99 1020.64 1021.27 1021.82 1022.30 1022.68 1022.97
1016.42 1016.61 1016.66 1016.54 1016.23 1015.78 1015.24 1014.70 1014.26 1013.96 1013.86 1013.95 1014.22 1014.60 1015.04 1015.48 1015.88 1016.21 1016.47 1016.66 1016.80 1016.91 1017.01 1017.09 1017.17 1017.24 1017.29 1017.32 1017.34 1017.38 1017.46 1017.60 1017.83 1018.15 1018.59 1019.12 1019.71 1020.35 1020.99 1021.61 1022.16 1022.64 1023.03
1016.85 1017.15 1017.31 1017.29 1017.08 1016.70 1016.21 1015.69 1015.23 1014.89 1014.71 1014.72 1014.88 1015.17 1015.52 1015.89 1016.23 1016.53 1016.78 1016.99 1017.16 1017.31 1017.46 1017.60 1017.73 1017.84 1017.91 1017.95 1017.96 1017.95 1017.96 1018.00 1018.12 1018.33 1018.64 1019.06 1019.57 1020.15 1020.77 1021.40 1021.99 1022.53 1022.99
1017.26 1017.66 1017.94 1018.04 1017.94 1017.64 1017.22 1016.73 1016.27 1015.89 1015.65 1015.57 1015.63 1015.80 1016.06 1016.34 1016.62 1016.87 1017.10 1017.31 1017.50 1017.70 1017.89 1018.09 1018.27 1018.43 1018.54 1018.61 1018.63 1018.61 1018.58 1018.56 1018.59 1018.70 1018.90 1019.20 1019.60 1020.10 1020.66 1021.25 1021.84 1022.40 1022.90
1017.65 1018.16 1018.55 1018.76 1018.76 1018.57 1018.22 1017.78 1017.33 1016.94 1016.65 1016.49 1016.45 1016.53 1016.68 1016.87 1017.08 1017.28 1017.48 1017.68 1017.88 1018.09 1018.31 1018.55 1018.78 1018.98 1019.14 1019.25 1019.30 1019.30 1019.26 1019.22 1019.20 1019.23 1019.33 1019.53 1019.82 1020.21 1020.69 1021.22 1021.77 1022.32 1022.82
1018.07 1018.66 1019.14 1019.44 1019.53 1019.43 1019.16 1018.78 1018.37 1017.98 1017.67 1017.45 1017.35 1017.34 1017.40 1017.51 1017.65 1017.80 1017.96 1018.13 1018.31 1018.53 1018.76 1019.01 1019.26 1019.49 1019.69 1019.84 1019.93 1019.96 1019.95 1019.91 1019.87 1019.86 1019.90 1020.01 1020.22 1020.51 1020.89 1021.34 1021.83 1022.34 1022.82
1018.54 1019.18 1019.71 1020.07 1020.23 1020.20 1020.01 1019.70 1019.34 1018.98 1018.67 1018.43 1018.28 1018.21 1018.21 1018.26 1018.33 1018.43 1018.55 1018.69 1018.85 1019.04 1019.25 1019.49 1019.73 1019.97 1020.18 1020.35 1020.48 1020.56 1020.59 1020.58 1020.56 1020.54 1020.55 1020.62 1020.75 1020.96 1021.26 1021.63 1022.05 1022.50 1022.94
1019.08 1019.72 1020.26 1020.64 1020.85 1020.87 1020.75 1020.51 1020.21 1019.89 1019.61 1019.38 1019.21 1019.11 1019.07 1019.07 1019.11 1019.17 1019.25 1019.35 1019.48 1019.63 1019.81 1020.00 1020.21 1020.43 1020.63 1020.81 1020.96 1021.07 1021.15 1021.19 1021.20 1021.21 1021.23 1021.28 1021.38 1021.54 1021.76 1022.06 1022.41 1022.80 1023.20
1019.67 1020.29 1020.79 1021.16 1021.37 1021.43 1021.35 1021.18 1020.94 1020.69 1020.45 1020.24 1020.09 1019.98 1019.93 1019.91 1019.93 1019.96 1020.02 1020.10 1020.19 1020.30 1020.42 1020.57 1020.72 1020.89 1021.06 1021.22 1021.37 1021.51 1021.62 1021.71 1021.78 1021.83 1021.89 1021.95 1022.04 1022.17 1022.35 1022.60 1022.89 1023.22 1023.57
1020.29 1020.83 1021.28 1021.60 1021.79 1021.86 1021.82 1021.70 1021.53 1021.34 1021.15 1020.98 1020.85 1020.76 1020.71 1020.70 1020.71 1020.75 1020.80 1020.86 1020.93 1021.01 1021.09 1021.17 1021.27 1021.37 1021.49 1021.62 1021.75 1021.89 1022.03 1022.16 1022.28 1022.39 1022.49 1022.58 1022.69 1022.81 1022.97 1023.17 1023.42 1023.70 1024.00
1020.87 1021.33 1021.69 1021.95 1022.11 1022.17 1022.15 1022.08 1021.96 1021.83 1021.69 1021.57 1021.48 1021.41 1021.38 1021.38 1021.41 1021.46 1021.53 1021.59 1021.66 1021.72 1021.76 1021.80 1021.84 1021.88 1021.94 1022.02 1022.12 1022.25 1022.40 1022.56 1022.72 1022.87 1023.02 1023.15 1023.28 1023.41 1023.56 1023.73 1023.93 1024.17 1024.42
1021.35 1021.72 1022.00 1022.19 1022.31 1022.36 1022.36 1022.32 1022.26 1022.18 1022.09 1022.01 1021.94 1021.90 1021.89 1021.91 1021.97 1022.05 1022.14 1022.24 1022.32 1022.38 1022.42 1022.43 1022.43 1022.42 1022.43 1022.45 1022.52 1022.62 1022.76 1022.92 1023.11 1023.30 1023.47 1023.64 1023.79 1023.92 1024.06 1024.21 1024.37 1024.55 1024.75
1021.69 1021.97 1022.18 1022.31 1022.40 1022.45 1022.47 1022.47 1022.44 1022.40 1022.35 1022.30 1022.26 1022.23 1022.24 1022.29 1022.38 1022.49 1022.63 1022.76 1022.88 1022.98 1023.03 1023.04 1023.02 1022.98 1022.94 1022.92 1022.95 1023.01 1023.13 1023.29 1023.48 1023.68 1023.87 1024.05 1024.21 1024.34 1024.46 1024.58 1024.70 1024.83 1024.97
1021.85 1022.07 1022.22 1022.32 1022.40 1022.46 1022.50 1022.53 1022.55 1022.54 1022.52 1022.48 1022.45 1022.44 1022.47 1022.53 1022.64 1022.80 1022.98 1023.17 1023.34 1023.48 1023.57 1023.60 1023.58 1023.54 1023.48 1023.43 1023.42 1023.45 1023.54 1023.68 1023.85 1024.04 1024.24 1024.41 1024.56 1024.67 1024.76 1024.84 1024.91 1024.98 1025.06
1021.86 1022.03 1022.15 1022.25 1022.34 1022.42 1022.51 1022.58 1022.62 1022.65 1022.64 1022.62 1022.59 1022.58 1022.61 1022.69 1022.82 1023.01 1023.24 1023.48 1023.71 1023.90 1024.04 1024.11 1024.12 1024.08 1024.02 1023.95 1023.92 1023.92 1023.98 1024.09 1024.24 1024.41 1024.58 1024.73 1024.85 1024.94 1024.99 1025.02 1025.03 1025.04 1025.05
1021.74 1021.90 1022.03 1022.14 1022.26 1022.39 1022.51 1022.63 1022.71 1022.76 1022.77 1022.75 1022.73 1022.71 1022.74 1022.82 1022.98 1023.19 1023.45 1023.73 1024.01 1024.26 1024.45 1024.56 1024.61 1024.59 1024.55 1024.48 1024.43 1024.42 1024.45 1024.53 1024.64 1024.78 1024.91 1025.03 1025.11 1025.16 1025.17 1025.14 1025.10 1025.05 1025.00
1021.56 1021.73 1021.89 1022.04 1022.21 1022.39 1022.56 1022.71 1022.83 1022.91 1022.93 1022.92 1022.90 1022.89 1022.91 1023.00 1023.15 1023.38 1023.67 1023.99 1024.30 1024.59 1024.82 1024.98 1025.06 1025.07 1025.04 1024.99 1024.94 1024.91 1024.92 1024.97 1025.04 1025.14 1025.24 1025.31 1025.35 1025.36 1025.32 1025.25 1025.16 1025.06 1024.96
1021.38 1021.59 1021.79 1021.99 1022.21 1022.43 1022.65 1022.85 1023.00 1023.10 1023.14 1023.14 1023.13 1023.12 1023.15 1023.24 1023.40 1023.64 1023.93 1024.26 1024.60 1024.91 1025.16 1025.35 1025.45 1025.49 1025.48 1025.44 1025.39 1025.36 1025.35 1025.37 1025.42 1025.48 1025.53 1025.57 1025.58 1025.54 1025.47 1025.37 1025.25 1025.11 1024.97
1021.26 1021.51 1021.75 1022.00 1022.27 1022.54 1022.80 1023.02 1023.20 1023.32 1023.39 1023.41 1023.41 1023.42 1023.46 1023.55 1023.72 1023.96 1024.25 1024.58 1024.92 1025.23 1025.49 1025.68 1025.80 1025.85 1025.85 1025.81 1025.77 1025.73 1025.71 1025.71 1025.73 1025.76 1025.78 1025.78 1025.76 1025.70 1025.61 1025.49 1025.35 1025.20 1025.04
1021.22 1021.51 1021.79 1022.08 1022.38 1022.68 1022.96 1023.21 1023.41 1023.55 1023.64 1023.68 1023.71 1023.74 1023.80 1023.92 1024.09 1024.33 1024.62 1024.93 1025.24 1025.53 1025.78 1025.96 1026.07 1026.12 1026.12 1026.09 1026.05 1026.01 1025.98 1025.96 1025.96 1025.96 1025.95 1025.93 1025.88 1025.81 1025.71 1025.59 1025.45 1025.31 1025.16
1021.26 1021.57 1021.89 1022.20 1022.52 1022.83 1023.12 1023.37 1023.58 1023.74 1023.85 1023.92 1023.98 1024.05 1024.14 1024.28 1024.47 1024.70 1024.97 1025.26 1025.55 1025.80 1026.02 1026.17 1026.26 1026.30 1026.30 1026.26 1026.22 1026.17 1026.13 1026.10 1026.08 1026.06 1026.03 1025.98 1025.92 1025.84 1025.75 1025.64 1025.52 1025.40 1025.28
1021.34 1021.68 1022.01 1022.33 1022.65 1022.95 1023.23 1023.47 1023.68 1023.84 1023.97 1024.08 1024.17 1024.28 1024.41 1024.58 1024.78 1025.01 1025.27 1025.53 1025.78 1026.00 1026.17 1026.29 1026.35 1026.37 1026.36 1026.32 1026.27 1026.22 1026.17 1026.13 1026.09 1026.05 1026.00 1025.95 1025.87 1025.80 1025.71 1025.63 1025.54 1025.46 1025.38
Thickness
5696 5697 5699 5699 5699 5699 5701 5701 5700 5698 5696 5695 5694 5692 5690 5691 5692 5692 5692 5692 5692 5693 5695 5697 5697 5697 5696 5696 5696 5694 5691 5688 5688 5684 5679 5677 5677 5677 5677 5677 5677 5675 5674
5687 5687 5687 5686 5685 5687 5689 5691 5692 5691 5690 5687 5686 5686 5683 5683 5684 5684 5684 5685 5685 5687 5689 5691 5691 5691 5689 5689 5689 5689 5684 5681 5682 5679 5672 5667 5665 5666 5667 5667 5667 5667 5665
5678 5676 5675 5673 5673 5674 5676 5680 5681 5682 5682 5682 5680 5678 5677 5676 5675 5674 5675 5676 5678 5679 5680 5682 5684 5685 5684 5683 5683 5683 5681 5676 5675 5676 5672 5665 5660 5657 5655 5656 5657 5657 5656
5668 5667 5664 5663 5663 5663 5665 5668 5670 5672 5673 5673 5672 5672 5670 5669 5668 5665 5665 5666 5669 5671 5672 5675 5677 5676 5677 5677 5677 5677 5676 5674 5671 5670 5671 5669 5665 5656 5648 5646 5647 5647 5646
5657 5656 5654 5654 5654 5654 5654 5656 5658 5660 5662 5664 5663 5663 5661 5660 5660 5658 5657 5658 5661 5663 5663 5666 5667 5666 5668 5668 5669 5669 5669 5668 5666 5665 5663 5661 5659 5656 5649 5641 5637 5636 5636
5648 5646 5644 5644 5643 5643 5643 5644 5647 5648 5651 5652 5653 5653 5653 5651 5651 5649 5648 5649 5650 5652 5653 5655 5655 5655 5657 5658 5659 5660 5659 5660 5659 5658 5657 5655 5652 5649 5646 5638 5632 5627 5625
5639 5637 5634 5633 5633 5632 5633 5634 5635 5636 5638 5640 5641 5642 5642 5642 5641 5639 5639 5640 5641 5642 5642 5643 5644 5645 5646 5648 5649 5649 5650 5650 5650 5649 5648 5648 5646 5644 5641 5635 5625 5619 5615
5629 5627 5625 5624 5624 5623 5623 5624 5624 5625 5626 5627 5629 5629 5630 5631 5630 5630 5630 5630 5631 5631 5633 5633 5634 5635 5636 5636 5637 5637 5638 5639 5638 5638 5638 5638 5637 5636 5634 5629 5621 5612 5606
5621 5619 5617 5615 5614 5613 5613 5612 5612 5612 5614 5615 5617 5617 5619 5619 5619 5619 5620 5620 5620 5621 5621 5622 5623 5623 5624 5625 5625 5625 5625 5626 5626 5626 5627 5627 5626 5625 5624 5621 5618 5611 5600
5613 5611 5608 5606 5604 5602 5601 5602 5601 5602 5602 5603 5605 5606 5606 5607 5608 5608 5609 5609 5609 5609 5610 5610 5611 5612 5612 5612 5611 5611 5612 5613 5612 5613 5614 5613 5613 5612 5611 5609 5607 5604 5599
5606 5602 5600 5597 5594 5592 5591 5591 5591 5590 5590 5591 5593 5593 5593 5594 5595 5596 5597 5598 5598 5599 5599 5599 5600 5600 5599 5599 5599 5599 5600 5600 5600 5600 5600 5599 5600 5598 5597 5596 5595 5592 5589
5599 5594 5591 5587 5585 5582 5581 5580 5579 5579 5579 5580 5580 5580 5581 5582 5583 5583 5584 5586 5587 5587 5587 5587 5588 5588 5588 5587 5587 5588 5588 5587 5587 5586 5587 5586 5587 5585 5583 5582 5580 5578 5576
5591 5586 5581 5578 5575 5572 5571 5569 5569 5568 5568 5569 5569 5569 5569 5569 5570 5571 5572 5574 5575 5575 5575 5575 5575 5575 5575 5575 5576 5576 5576 5575 5575 5574 5574 5574 5574 5571 5570 5569 5567 5565 5563
5585 5578 5572 5568 5565 5563 5561 5560 5559 5558 5557 5557 5557 5557 5557 5557 5558 5558 5560 5561 5562 5562 5562 5563 5563 5563 5564 5564 5564 5564 5564 5563 5563 5562 5562 5562 5561 5560 5559 5557 5554 5552 5549
5578 5572 5565 5560 5556 5553 5552 5550 5549 5548 5547 5546 5546 5546 5546 5546 5546 5547 5547 5548 5550 5550 5550 5551 5551 5551 5552 5552 5552 5552 5552 5551 5551 5551 5551 5551 5550 5550 5549 5547 5543 5541 5537
5571 5564 5559 5553 5549 5546 5544 5541 5540 5539 5538 5536 5536 5536 5536 5535 5535 5536 5536 5537 5538 5538 5539 5538 5539 5539 5540 5540 5542 5542 5541 5540 5540 5539 5539 5540 5539 5539 5538 5537 5535 5533 5529
5565 5558 5552 5546 5542 5538 5535 5533 5532 5530 5529 5528 5527 5526 5526 5526 5526 5526 5526 5526 5526 5526 5526 5526 5527 5527 5528 5530 5532 5533 5531 5530 5529 5529 5529 5529 5528 5528 5527 5526 5525 5523 5521
5558 5551 5545 5539 5534 5531 5528 5526 5524 5523 5522 5520 5519 5518 5518 5517 5517 5517 5517 5517 5517 5516 5516 5516 5517 5518 5519 5521 5522 5523 5522 5520 5520 5519 5518 5518 5517 5517 5517 5516 5514 5512 5510
5552 5544 5538 5533 5528 5524 5522 5520 5518 5516 5515 5514 5512 5512 5511 5510 5510 5509 5509 5509 5509 5508 5508 5508 5509 5508 5509 5511 5512 5513 5512 5510 5509 5509 5508 5508 5507 5507 5507 5506 5503 5501 5501
5544 5537 5531 5526 5522 5518 5516 5513 5511 5510 5510 5509 5508 5507 5506 5505 5504 5503 5503 5503 5503 5502 5502 5501 5500 5500 5500 5502 5503 5504 5503 5500 5499 5499 5498 5499 5499 5499 5498 5496 5494 5492 5492
5538 5532 5526 5521 5517 5514 5511 5508 5506 5505 5505 5505 5503 5502 5501 5500 5499 5498 5497 5497 5496 5495 5494 5493 5492 5493 5493 5494 5495 5495 5494 5493 5491 5490 5489 5490 5491 5491 5490 5490 5488 5487 5487
5531 5526 5520 5516 5513 5510 5508 5505 5503 5502 5501 5500 5499 5497 5496 5497 5495 5493 5492 5492 5491 5489 5487 5486 5485 5485 5485 5486 5487 5487 5487 5487 5484 5483 5483 5483 5485 5485 5485 5484 5484 5483 5483
5527 5522 5517 5512 5509 5508 5505 5502 5500 5499 5498 5496 5495 5493 5492 5491 5490 5489 5487 5486 5485 5483 5481 5480 5478 5477 5478 5478 5479 5480 5480 5480 5478 5478 5479 5480 5480 5480 5480 5480 5480 5479 5477
5523 5518 5514 5510 5507 5505 5503 5500 5499 5498 5496 5493 5491 5490 5488 5486 5485 5484 5483 5481 5480 5479 5477 5475 5473 5472 5471 5472 5472 5473 5473 5474 5473 5473 5475 5476 5476 5476 5476 5475 5474 5474 5473
5521 5516 5512 5508 5505 5503 5500 5499 5498 5496 5493 5490 5489 5486 5484 5482 5479 5478 5477 5476 5476 5476 5475 5473 5471 5468 5467 5468 5469 5468 5468 5468 5468 5468 5469 5470 5469 5469 5468 5468 5469 5469 5469
5520 5515 5511 5507 5504 5502 5500 5498 5497 5494 5491 5488 5485 5483 5481 5478 5477 5475 5473 5473 5474 5474 5474 5473 5470 5469 5468 5467 5467 5466 5466 5466 5466 5465 5463 5463 5463 5463 5463 5463 5464 5464 5464